Regional Weather Roundup
Issued by NWS Cleveland, OH

Home | Current Version | Previous Version | Text Only | Print | Product List | Glossary Off
Versions: 1 2 3 4 5 6 7 8 9 10 11 12 13 14 15 16 17 18 19 20 21 22 23 24 25 26 27 28 29 30 31 32 33 34 35 36 37 38 39 40 41 42 43 44 45 46 47 48 49 50

000
ASUS41 KCLE 230910
RWRCLE
OHIO REGIONAL WEATHER ROUNDUP
NATIONAL WEATHER SERVICE WILMINGTON, OH
500 AM EDT MON APR 23 2018

NOTE: "FAIR" INDICATES FEW OR NO CLOUDS BELOW 12,000 FEET WITH NO
SIGNIFICANT WEATHER AND/OR OBSTRUCTIONS TO VISIBILITY.

OHZ001>008-015>018-024>027-034-035-043-044-231000-
   NORTHWEST OHIO

CITY           SKY/WX    TMP DP  RH WIND       PRES   REMARKS
DEFIANCE       FAIR      42  30  62 NE6       30.20F
FINDLAY        FAIR      45  26  47 NE10      30.18F
TOLEDO EXPRESS FAIR      43  33  68 NE8       30.22S
TOLEDO EXEC    FAIR      43  34  70 NE8       30.23F
LIMA           FAIR      41  29  62 NE7       30.16F
$$

OHZ009>014-019>023-028>033-038-089-231000-
   NORTHEAST OHIO

CITY           SKY/WX    TMP DP  RH WIND       PRES   REMARKS
CLE-HOPKINS    FAIR      52  32  46 E12       30.25F
CLE-LAKEFRONT  FAIR      55  33  43 E10       30.22F
CUY CO. ARPT   NOT AVBL
LORAIN-ELYRIA  FAIR      39  23  52 NE7       30.22F
ASHTABULA      FAIR      47  24  40 SE8       30.30S
AKRON-CANTON   FAIR      49  33  54 E6        30.24S
WOOSTER        FAIR      45  32  60 E9        30.22F
MANSFIELD      FAIR      46  30  53 E9        30.20S
YOUNGSTOWN     FAIR      48  32  53 E12       30.27S
$$

OHZ042-051>053-060>062-070>072-077>081-231000-
  SOUTHWEST OHIO

CITY           SKY/WX    TMP DP  RH WIND       PRES   REMARKS
CINC-COVINGTON CLOUDY    55  32  41 E9        30.07S
CINC-LUNKEN    FAIR      47  43  86 CALM      30.09F
HAMILTON       FAIR      47  36  65 NE6       30.10F
DAYTON         MOCLDY    51  33  50 E10       30.12F
WRIGHT-PAT AFB FAIR      51  32  49 NE7       30.12F
DAYTON GENERAL FAIR      53  31  42 E10       30.10S
WILMINGTON     FAIR      48  35  60 E10       30.11F
$$

OHZ036-037-039>041-045>050-054>059-063>069-073>076-082>088-231000-
  CENTRAL AND SOUTHEAST OHIO

CITY           SKY/WX    TMP DP  RH WIND       PRES   REMARKS
COLUMBUS       MOCLDY    54  33  45 E8        30.16S
OSU AIRPORT    FAIR      47  33  58 E7        30.15S
BOLTON FIELD   FAIR      51  34  52 E5        30.16S
RICKENBACK AFB FAIR      46  34  61 E7        30.15S
NEWARK         FAIR      48  33  56 NE6       30.17F
MARION         FAIR      42  31  64 E7        30.18S
LANCASTER      FAIR      42  35  76 CALM      30.16F
ZANESVILLE     NOT AVBL
NEW PHILLY     FAIR      49  37  63 E5        30.23S
$$




USA.gov is the U.S. government's official web portal to all federal, state and local government web resources and services.